Year,Month,Day,Hour,Minute,Value (Times are PST for temperature in C)
2015,10,23,00,00,5.50
2015,10,23,00,01,5.50
2015,10,23,00,02,5.50
2015,10,23,00,03,5.50
2015,10,23,00,04,5.40
2015,10,23,00,05,5.40
2015,10,23,00,06,5.40
2015,10,23,00,07,5.40
2015,10,23,00,08,5.40
2015,10,23,00,09,5.40
2015,10,23,00,10,5.40
2015,10,23,00,11,5.40
2015,10,23,00,12,5.40
2015,10,23,00,13,5.40
2015,10,23,00,14,5.50
2015,10,23,00,15,5.50
2015,10,23,00,16,5.50
2015,10,23,00,17,5.50
2015,10,23,00,18,5.50
2015,10,23,00,19,5.60
2015,10,23,00,20,5.60
2015,10,23,00,21,5.60
2015,10,23,00,22,5.60
2015,10,23,00,23,5.60
2015,10,23,00,24,5.70
2015,10,23,00,25,5.70
2015,10,23,00,26,5.70
2015,10,23,00,27,5.70
2015,10,23,00,28,5.70
2015,10,23,00,29,5.70
2015,10,23,00,30,5.70
2015,10,23,00,31,5.70
2015,10,23,00,32,5.70
2015,10,23,00,33,5.70
2015,10,23,00,34,5.70
2015,10,23,00,35,5.60
2015,10,23,00,36,5.60
2015,10,23,00,37,5.60
2015,10,23,00,38,5.60
2015,10,23,00,39,5.60
2015,10,23,00,40,5.50
2015,10,23,00,41,5.60
2015,10,23,00,42,5.60
2015,10,23,00,43,5.60
2015,10,23,00,44,5.60
2015,10,23,00,45,5.60
2015,10,23,00,46,5.60
2015,10,23,00,47,5.60
2015,10,23,00,48,5.60
2015,10,23,00,49,5.50
2015,10,23,00,50,5.50
2015,10,23,00,51,5.50
2015,10,23,00,52,5.50
2015,10,23,00,53,5.60
2015,10,23,00,54,5.50
2015,10,23,00,55,5.50
2015,10,23,00,56,5.60
2015,10,23,00,57,5.60
2015,10,23,00,58,5.50
2015,10,23,00,59,5.50
2015,10,23,01,00,5.50
2015,10,23,01,01,5.50
2015,10,23,01,02,5.50
2015,10,23,01,03,5.50
2015,10,23,01,04,5.50
2015,10,23,01,05,5.50
2015,10,23,01,06,5.50
2015,10,23,01,07,5.50
2015,10,23,01,08,5.50
2015,10,23,01,09,5.50
2015,10,23,01,10,5.50
2015,10,23,01,11,5.50
2015,10,23,01,12,5.50
2015,10,23,01,13,5.50
2015,10,23,01,14,5.50
2015,10,23,01,15,5.50
2015,10,23,01,16,5.60
2015,10,23,01,17,5.60
2015,10,23,01,18,5.60
2015,10,23,01,19,5.60
2015,10,23,01,20,5.60
2015,10,23,01,21,5.60
2015,10,23,01,22,5.60
2015,10,23,01,23,5.60
2015,10,23,01,24,5.60
2015,10,23,01,25,5.60
2015,10,23,01,26,5.60
2015,10,23,01,27,5.60
2015,10,23,01,28,5.60
2015,10,23,01,29,5.60
2015,10,23,01,30,5.60
2015,10,23,01,31,5.60
2015,10,23,01,32,5.60
2015,10,23,01,33,5.50
2015,10,23,01,34,5.50
2015,10,23,01,35,5.50
2015,10,23,01,36,5.50
2015,10,23,01,37,5.40
2015,10,23,01,38,5.40
2015,10,23,01,39,5.40
2015,10,23,01,40,5.40
2015,10,23,01,41,5.40
2015,10,23,01,42,5.40
2015,10,23,01,43,5.40
2015,10,23,01,44,5.40
2015,10,23,01,45,5.40
2015,10,23,01,46,5.40
2015,10,23,01,47,5.40
2015,10,23,01,48,5.40
2015,10,23,01,49,5.40
2015,10,23,01,50,5.50
2015,10,23,01,51,5.50
2015,10,23,01,52,5.50
2015,10,23,01,53,5.50
2015,10,23,01,54,5.50
2015,10,23,01,55,5.50
2015,10,23,01,56,5.50
2015,10,23,01,57,5.50
2015,10,23,01,58,5.50
2015,10,23,01,59,5.50
2015,10,23,02,00,5.50
2015,10,23,02,01,5.50
2015,10,23,02,02,5.50
2015,10,23,02,03,5.50
2015,10,23,02,04,5.50
2015,10,23,02,05,5.50
2015,10,23,02,06,5.50
2015,10,23,02,07,5.50
2015,10,23,02,08,5.50
2015,10,23,02,09,5.50
2015,10,23,02,10,5.50
2015,10,23,02,11,5.60
2015,10,23,02,12,5.60
2015,10,23,02,13,5.60
2015,10,23,02,14,5.60
2015,10,23,02,15,5.60
2015,10,23,02,16,5.60
2015,10,23,02,17,5.60
2015,10,23,02,18,5.60
2015,10,23,02,19,5.60
2015,10,23,02,20,5.60
2015,10,23,02,21,5.60
2015,10,23,02,22,5.60
2015,10,23,02,23,5.70
2015,10,23,02,24,5.70
2015,10,23,02,25,5.70
2015,10,23,02,26,5.70
2015,10,23,02,27,5.70
2015,10,23,02,28,5.70
2015,10,23,02,29,5.70
2015,10,23,02,30,5.70
2015,10,23,02,31,5.70
2015,10,23,02,32,5.70
2015,10,23,02,33,5.70
2015,10,23,02,34,5.70
2015,10,23,02,35,5.70
2015,10,23,02,36,5.70
2015,10,23,02,37,5.70
2015,10,23,02,38,5.70
2015,10,23,02,39,5.70
2015,10,23,02,40,5.80
2015,10,23,02,41,5.80
2015,10,23,02,42,5.80
2015,10,23,02,43,5.80
2015,10,23,02,44,5.80
2015,10,23,02,45,5.80
2015,10,23,02,46,5.80
2015,10,23,02,47,5.90
2015,10,23,02,48,5.90
2015,10,23,02,49,5.90
2015,10,23,02,50,5.90
2015,10,23,02,51,6.00
2015,10,23,02,52,6.00
2015,10,23,02,53,6.00
2015,10,23,02,54,6.00
2015,10,23,02,55,6.00
2015,10,23,02,56,6.00
2015,10,23,02,57,6.10
2015,10,23,02,58,6.10
2015,10,23,02,59,6.10
2015,10,23,03,00,6.10
2015,10,23,03,01,6.20
2015,10,23,03,02,6.20
2015,10,23,03,03,6.20
2015,10,23,03,04,6.20
2015,10,23,03,05,6.30
2015,10,23,03,06,6.30
2015,10,23,03,07,6.30
2015,10,23,03,08,6.30
2015,10,23,03,09,6.30
2015,10,23,03,10,6.30
2015,10,23,03,11,6.30
2015,10,23,03,12,6.30
2015,10,23,03,13,6.30
2015,10,23,03,14,6.30
2015,10,23,03,15,6.30
2015,10,23,03,16,6.30
2015,10,23,03,17,6.30
2015,10,23,03,18,6.30
2015,10,23,03,19,6.20
2015,10,23,03,20,6.20
2015,10,23,03,21,6.20
2015,10,23,03,22,6.20
2015,10,23,03,23,6.20
2015,10,23,03,24,6.20
2015,10,23,03,25,6.20
2015,10,23,03,26,6.20
2015,10,23,03,27,6.20
2015,10,23,03,28,6.20
2015,10,23,03,29,6.20
2015,10,23,03,30,6.20
2015,10,23,03,31,6.20
2015,10,23,03,32,6.20
2015,10,23,03,33,6.20
2015,10,23,03,34,6.20
2015,10,23,03,35,6.20
2015,10,23,03,36,6.20
2015,10,23,03,37,6.20
2015,10,23,03,38,6.20
2015,10,23,03,39,6.30
2015,10,23,03,40,6.30
2015,10,23,03,41,6.30
2015,10,23,03,42,6.30
2015,10,23,03,43,6.30
2015,10,23,03,44,6.30
2015,10,23,03,45,6.30
2015,10,23,03,46,6.30
2015,10,23,03,47,6.30
2015,10,23,03,48,6.30
2015,10,23,03,49,6.30
2015,10,23,03,50,6.30
2015,10,23,03,51,6.30
2015,10,23,03,52,6.30
2015,10,23,03,53,6.30
2015,10,23,03,54,6.30
2015,10,23,03,55,6.30
2015,10,23,03,56,6.30
2015,10,23,03,57,6.30
2015,10,23,03,58,6.30
2015,10,23,03,59,6.30
2015,10,23,04,00,6.20
2015,10,23,04,01,6.20
2015,10,23,04,02,6.20
2015,10,23,04,03,6.20
2015,10,23,04,04,6.20
2015,10,23,04,05,6.20
2015,10,23,04,06,6.20
2015,10,23,04,07,6.20
2015,10,23,04,08,6.20
2015,10,23,04,09,6.10
2015,10,23,04,10,6.10
2015,10,23,04,11,6.10
2015,10,23,04,12,6.10
2015,10,23,04,13,6.10
2015,10,23,04,14,6.10
2015,10,23,04,15,6.10
2015,10,23,04,16,6.10
2015,10,23,04,17,6.10
2015,10,23,04,18,6.10
2015,10,23,04,19,6.10
2015,10,23,04,20,6.10
2015,10,23,04,21,6.10
2015,10,23,04,22,6.10
2015,10,23,04,23,6.10
2015,10,23,04,24,6.10
2015,10,23,04,25,6.10
2015,10,23,04,26,6.10
2015,10,23,04,27,6.10
2015,10,23,04,28,6.20
2015,10,23,04,29,6.20
2015,10,23,04,30,6.20
2015,10,23,04,31,6.20
2015,10,23,04,32,6.20
2015,10,23,04,33,6.20
2015,10,23,04,34,6.20
2015,10,23,04,35,6.20
2015,10,23,04,36,6.20
2015,10,23,04,37,6.20
2015,10,23,04,38,6.20
2015,10,23,04,39,6.20
2015,10,23,04,40,6.20
2015,10,23,04,41,6.30
2015,10,23,04,42,6.30
2015,10,23,04,43,6.30
2015,10,23,04,44,6.30
2015,10,23,04,45,6.30
2015,10,23,04,46,6.30
2015,10,23,04,47,6.30
2015,10,23,04,48,6.30
2015,10,23,04,49,6.30
2015,10,23,04,50,6.40
2015,10,23,04,51,6.40
2015,10,23,04,52,6.40
2015,10,23,04,53,6.40
2015,10,23,04,54,6.40
2015,10,23,04,55,6.40
2015,10,23,04,56,6.40
2015,10,23,04,57,6.50
2015,10,23,04,58,6.50
2015,10,23,04,59,6.50
2015,10,23,05,00,6.50
2015,10,23,05,01,6.50
2015,10,23,05,02,6.60
2015,10,23,05,03,6.60
2015,10,23,05,04,6.60
2015,10,23,05,05,6.60
2015,10,23,05,06,6.60
2015,10,23,05,07,6.60
2015,10,23,05,08,6.70
2015,10,23,05,09,6.70
2015,10,23,05,10,6.70
2015,10,23,05,11,6.70
2015,10,23,05,12,6.70
2015,10,23,05,13,6.70
2015,10,23,05,14,6.80
2015,10,23,05,15,6.80
2015,10,23,05,16,6.80
2015,10,23,05,17,6.80
2015,10,23,05,18,6.80
2015,10,23,05,19,6.80
2015,10,23,05,20,6.90
2015,10,23,05,21,6.90
2015,10,23,05,22,6.90
2015,10,23,05,23,6.90
2015,10,23,05,24,6.90
2015,10,23,05,25,7.00
2015,10,23,05,26,7.00
2015,10,23,05,27,7.00
2015,10,23,05,28,7.00
2015,10,23,05,29,7.00
2015,10,23,05,30,7.00
2015,10,23,05,31,7.10
2015,10,23,05,32,7.10
2015,10,23,05,33,7.10
2015,10,23,05,34,7.10
2015,10,23,05,35,7.10
2015,10,23,05,36,7.10
2015,10,23,05,37,7.10
2015,10,23,05,38,7.10
2015,10,23,05,39,7.10
2015,10,23,05,40,7.20
2015,10,23,05,41,7.20
2015,10,23,05,42,7.20
2015,10,23,05,43,7.20
2015,10,23,05,44,7.20
2015,10,23,05,45,7.20
2015,10,23,05,46,7.20
2015,10,23,05,47,7.20
2015,10,23,05,48,7.20
2015,10,23,05,49,7.20
2015,10,23,05,50,7.20
2015,10,23,05,51,7.20
2015,10,23,05,52,7.30
2015,10,23,05,53,7.30
2015,10,23,05,54,7.30
2015,10,23,05,55,7.30
2015,10,23,05,56,7.30
2015,10,23,05,57,7.30
2015,10,23,05,58,7.30
2015,10,23,05,59,7.30
2015,10,23,06,00,7.30
2015,10,23,06,01,7.30
2015,10,23,06,02,7.30
2015,10,23,06,03,7.40
2015,10,23,06,04,7.40
2015,10,23,06,05,7.40
2015,10,23,06,06,7.40
2015,10,23,06,07,7.40
2015,10,23,06,08,7.40
2015,10,23,06,09,7.40
2015,10,23,06,10,7.40
2015,10,23,06,11,7.50
2015,10,23,06,12,7.50
2015,10,23,06,13,7.50
2015,10,23,06,14,7.50
2015,10,23,06,15,7.50
2015,10,23,06,16,7.60
2015,10,23,06,17,7.60
2015,10,23,06,18,7.60
2015,10,23,06,19,7.60
2015,10,23,06,20,7.60
2015,10,23,06,21,7.60
2015,10,23,06,22,7.60
2015,10,23,06,23,7.60
2015,10,23,06,24,7.60
2015,10,23,06,25,7.70
2015,10,23,06,26,7.70
2015,10,23,06,27,7.70
2015,10,23,06,28,7.70
2015,10,23,06,29,7.70
2015,10,23,06,30,7.70
2015,10,23,06,31,7.70
2015,10,23,06,32,7.70
2015,10,23,06,33,7.70
2015,10,23,06,34,7.70
2015,10,23,06,35,7.70
2015,10,23,06,36,7.80
2015,10,23,06,37,7.80
2015,10,23,06,38,7.80
2015,10,23,06,39,7.80
2015,10,23,06,40,7.80
2015,10,23,06,41,7.80
2015,10,23,06,42,7.80
2015,10,23,06,43,7.80
2015,10,23,06,44,7.80
2015,10,23,06,45,7.80
2015,10,23,06,46,7.80
2015,10,23,06,47,7.80
2015,10,23,06,48,7.80
2015,10,23,06,49,7.80
2015,10,23,06,50,7.80
2015,10,23,06,51,7.80
2015,10,23,06,52,7.80
2015,10,23,06,53,7.80
2015,10,23,06,54,7.90
2015,10,23,06,55,7.90
2015,10,23,06,56,7.90
2015,10,23,06,57,7.90
2015,10,23,06,58,7.90
2015,10,23,06,59,7.90
2015,10,23,07,00,7.90
2015,10,23,07,01,7.90
2015,10,23,07,02,7.90
2015,10,23,07,03,7.90
2015,10,23,07,04,7.90
2015,10,23,07,05,7.90
2015,10,23,07,06,7.90
2015,10,23,07,07,8.00
2015,10,23,07,08,7.90
2015,10,23,07,09,8.00
2015,10,23,07,10,8.00
2015,10,23,07,11,8.00
2015,10,23,07,12,8.00
2015,10,23,07,13,8.00
2015,10,23,07,14,8.00
2015,10,23,07,15,8.00
2015,10,23,07,16,8.10
2015,10,23,07,17,8.10
2015,10,23,07,18,8.10
2015,10,23,07,19,8.10
2015,10,23,07,20,8.10
2015,10,23,07,21,8.10
2015,10,23,07,22,8.10
2015,10,23,07,23,8.10
2015,10,23,07,24,8.10
2015,10,23,07,25,8.10
2015,10,23,07,26,8.10
2015,10,23,07,27,8.10
2015,10,23,07,28,8.10
2015,10,23,07,29,8.10
2015,10,23,07,30,8.10
2015,10,23,07,31,8.20
2015,10,23,07,32,8.20
2015,10,23,07,33,8.20
2015,10,23,07,34,8.20
2015,10,23,07,35,8.20
2015,10,23,07,36,8.20
2015,10,23,07,37,8.20
2015,10,23,07,38,8.20
2015,10,23,07,39,8.20
2015,10,23,07,40,8.20
2015,10,23,07,41,8.20
2015,10,23,07,42,8.20
2015,10,23,07,43,8.20
2015,10,23,07,44,8.30
2015,10,23,07,45,8.30
2015,10,23,07,46,8.30
2015,10,23,07,47,8.30
2015,10,23,07,48,8.30
2015,10,23,07,49,8.30
2015,10,23,07,50,8.30
2015,10,23,07,51,8.30
2015,10,23,07,52,8.40
2015,10,23,07,53,8.40
2015,10,23,07,54,8.40
2015,10,23,07,55,8.40
2015,10,23,07,56,8.40
2015,10,23,07,57,8.40
2015,10,23,07,58,8.50
2015,10,23,07,59,8.50
2015,10,23,08,00,8.50
2015,10,23,08,01,8.50
2015,10,23,08,02,8.60
2015,10,23,08,03,8.60
2015,10,23,08,04,8.60
2015,10,23,08,05,8.60
2015,10,23,08,06,8.60
2015,10,23,08,07,8.60
2015,10,23,08,08,8.60
2015,10,23,08,09,8.60
2015,10,23,08,10,8.60
2015,10,23,08,11,8.60
2015,10,23,08,12,8.70
2015,10,23,08,13,8.70
2015,10,23,08,14,8.70
2015,10,23,08,15,8.70
2015,10,23,08,16,8.70
2015,10,23,08,17,8.70
2015,10,23,08,18,8.70
2015,10,23,08,19,8.70
2015,10,23,08,20,8.70
2015,10,23,08,21,8.70
2015,10,23,08,22,8.70
2015,10,23,08,23,8.80
2015,10,23,08,24,8.80
2015,10,23,08,25,8.80
2015,10,23,08,26,8.80
2015,10,23,08,27,8.80
2015,10,23,08,28,8.80
2015,10,23,08,29,8.80
2015,10,23,08,30,8.80
2015,10,23,08,31,8.80
2015,10,23,08,32,8.80
2015,10,23,08,33,8.80
2015,10,23,08,34,8.80
2015,10,23,08,35,8.80
2015,10,23,08,36,8.80
2015,10,23,08,37,8.80
2015,10,23,08,38,8.90
2015,10,23,08,39,8.90
2015,10,23,08,40,8.90
2015,10,23,08,41,8.90
2015,10,23,08,42,8.90
2015,10,23,08,43,8.90
2015,10,23,08,44,8.90
2015,10,23,08,45,8.90
2015,10,23,08,46,8.90
2015,10,23,08,47,8.90
2015,10,23,08,48,8.90
2015,10,23,08,49,8.90
2015,10,23,08,50,8.90
2015,10,23,08,51,8.90
2015,10,23,08,52,8.90
2015,10,23,08,53,8.90
2015,10,23,08,54,8.90
2015,10,23,08,55,9.00
2015,10,23,08,56,8.90
2015,10,23,08,57,9.00
2015,10,23,08,58,9.00
2015,10,23,08,59,9.00
2015,10,23,09,00,9.00
2015,10,23,09,01,9.00
2015,10,23,09,02,9.00
2015,10,23,09,03,9.00
2015,10,23,09,04,9.00
2015,10,23,09,05,9.10
2015,10,23,09,06,9.10
2015,10,23,09,07,9.10
2015,10,23,09,08,9.10
2015,10,23,09,09,9.10
2015,10,23,09,10,9.10
2015,10,23,09,11,9.10
2015,10,23,09,12,9.10
2015,10,23,09,13,9.10
2015,10,23,09,14,9.20
2015,10,23,09,15,9.20
2015,10,23,09,16,9.20
2015,10,23,09,17,9.20
2015,10,23,09,18,9.20
2015,10,23,09,19,9.20
2015,10,23,09,20,9.20
2015,10,23,09,21,9.30
2015,10,23,09,22,9.30
2015,10,23,09,23,9.30
2015,10,23,09,24,9.30
2015,10,23,09,25,9.30
2015,10,23,09,26,9.30
2015,10,23,09,27,9.40
2015,10,23,09,28,9.40
2015,10,23,09,29,9.40
2015,10,23,09,30,9.40
2015,10,23,09,31,9.40
2015,10,23,09,32,9.40
2015,10,23,09,33,9.40
2015,10,23,09,34,9.50
2015,10,23,09,35,9.50
2015,10,23,09,36,9.50
2015,10,23,09,37,9.50
2015,10,23,09,38,9.50
2015,10,23,09,39,9.50
2015,10,23,09,40,9.50
2015,10,23,09,41,9.50
2015,10,23,09,42,9.50
2015,10,23,09,43,9.60
2015,10,23,09,44,9.60
2015,10,23,09,45,9.60
2015,10,23,09,46,9.60
2015,10,23,09,47,9.60
2015,10,23,09,48,9.60
2015,10,23,09,49,9.60
2015,10,23,09,50,9.60
2015,10,23,09,51,9.70
2015,10,23,09,52,9.70
2015,10,23,09,53,9.70
2015,10,23,09,54,9.70
2015,10,23,09,55,9.70
2015,10,23,09,56,9.70
2015,10,23,09,57,9.70
2015,10,23,09,58,9.70
2015,10,23,09,59,9.80
2015,10,23,10,00,9.80
2015,10,23,10,01,9.80
2015,10,23,10,02,9.80
2015,10,23,10,03,9.80
2015,10,23,10,04,9.80
2015,10,23,10,05,9.80
2015,10,23,10,06,9.80
2015,10,23,10,07,9.90
2015,10,23,10,08,9.90
2015,10,23,10,09,9.90
2015,10,23,10,10,9.90
2015,10,23,10,11,9.90
2015,10,23,10,12,10.00
2015,10,23,10,13,10.00
2015,10,23,10,14,10.00
2015,10,23,10,15,10.00
2015,10,23,10,16,10.10
2015,10,23,10,17,10.10
2015,10,23,10,18,10.10
2015,10,23,10,19,10.10
2015,10,23,10,20,10.10
2015,10,23,10,21,10.20
2015,10,23,10,22,10.20
2015,10,23,10,23,10.20
2015,10,23,10,24,10.20
2015,10,23,10,25,10.20
2015,10,23,10,26,10.20
2015,10,23,10,27,10.20
2015,10,23,10,28,10.20
2015,10,23,10,29,10.30
2015,10,23,10,30,10.30
2015,10,23,10,31,10.30
2015,10,23,10,32,10.30
2015,10,23,10,33,10.30
2015,10,23,10,34,10.30
2015,10,23,10,35,10.30
2015,10,23,10,36,10.30
2015,10,23,10,37,10.30
2015,10,23,10,38,10.30
2015,10,23,10,39,10.30
2015,10,23,10,40,10.30
2015,10,23,10,41,10.30
2015,10,23,10,42,10.30
2015,10,23,10,43,10.30
2015,10,23,10,44,10.30
2015,10,23,10,45,10.30
2015,10,23,10,46,10.30
2015,10,23,10,47,10.30
2015,10,23,10,48,10.30
2015,10,23,10,49,10.30
2015,10,23,10,50,10.30
2015,10,23,10,51,10.30
2015,10,23,10,52,10.30
2015,10,23,10,53,10.30
2015,10,23,10,54,10.30
2015,10,23,10,55,10.40
2015,10,23,10,56,10.40
2015,10,23,10,57,10.40
2015,10,23,10,58,10.40
2015,10,23,10,59,10.40
2015,10,23,11,00,10.40
2015,10,23,11,01,10.40
2015,10,23,11,02,10.50
2015,10,23,11,03,10.50
2015,10,23,11,04,10.50
2015,10,23,11,05,10.50
2015,10,23,11,06,10.50
2015,10,23,11,07,10.50
2015,10,23,11,08,10.50
2015,10,23,11,09,10.50
2015,10,23,11,10,10.50
2015,10,23,11,11,10.50
2015,10,23,11,12,10.50
2015,10,23,11,13,10.60
2015,10,23,11,14,10.60
2015,10,23,11,15,10.60
2015,10,23,11,16,10.60
2015,10,23,11,17,10.60
2015,10,23,11,18,10.60
2015,10,23,11,19,10.60
2015,10,23,11,20,10.60
2015,10,23,11,21,10.60
2015,10,23,11,22,10.60
2015,10,23,11,23,10.60
2015,10,23,11,24,10.60
2015,10,23,11,25,10.60
2015,10,23,11,26,10.60
2015,10,23,11,27,10.60
2015,10,23,11,28,10.60
2015,10,23,11,29,10.60
2015,10,23,11,30,10.60
2015,10,23,11,31,10.60
2015,10,23,11,32,10.60
2015,10,23,11,33,10.60
2015,10,23,11,34,10.60
2015,10,23,11,35,10.60
2015,10,23,11,36,10.70
2015,10,23,11,37,10.70
2015,10,23,11,38,10.70
2015,10,23,11,39,10.70
2015,10,23,11,40,10.70
2015,10,23,11,41,10.70
2015,10,23,11,42,10.70
2015,10,23,11,43,10.70
2015,10,23,11,44,10.70
2015,10,23,11,45,10.70
2015,10,23,11,46,10.70
2015,10,23,11,47,10.70
2015,10,23,11,48,10.70
2015,10,23,11,49,10.70
2015,10,23,11,50,10.80
2015,10,23,11,51,10.80
2015,10,23,11,52,10.80
2015,10,23,11,53,10.80
2015,10,23,11,54,10.80
2015,10,23,11,55,10.80
2015,10,23,11,56,10.90
2015,10,23,11,57,10.90
2015,10,23,11,58,10.90
2015,10,23,11,59,10.90
2015,10,23,12,00,11.00
2015,10,23,12,01,11.00
2015,10,23,12,02,11.00
2015,10,23,12,03,11.10
2015,10,23,12,04,11.10
2015,10,23,12,05,11.10
2015,10,23,12,06,11.10
2015,10,23,12,07,11.10
2015,10,23,12,08,11.20
2015,10,23,12,09,11.20
2015,10,23,12,10,11.20
2015,10,23,12,11,11.20
2015,10,23,12,12,11.20
2015,10,23,12,13,11.30
2015,10,23,12,14,11.30
2015,10,23,12,15,11.40
2015,10,23,12,16,11.40
2015,10,23,12,17,11.40
2015,10,23,12,18,11.40
2015,10,23,12,19,11.50
2015,10,23,12,20,11.60
2015,10,23,12,21,11.60
2015,10,23,12,22,11.60
2015,10,23,12,23,11.60
2015,10,23,12,24,11.70
2015,10,23,12,25,11.70
2015,10,23,12,26,11.70
2015,10,23,12,27,11.70
2015,10,23,12,28,11.70
2015,10,23,12,29,11.80
2015,10,23,12,30,11.80
2015,10,23,12,31,11.80
2015,10,23,12,32,11.80
2015,10,23,12,33,11.80
2015,10,23,12,34,11.90
2015,10,23,12,35,11.90
2015,10,23,12,36,11.90
2015,10,23,12,37,11.90
2015,10,23,12,38,12.00
2015,10,23,12,39,12.00
2015,10,23,12,40,12.00
2015,10,23,12,41,12.00
2015,10,23,12,42,12.00
2015,10,23,12,43,12.00
2015,10,23,12,44,12.10
2015,10,23,12,45,12.10
2015,10,23,12,46,12.10
2015,10,23,12,47,12.20
2015,10,23,12,48,12.20
2015,10,23,12,49,12.20
2015,10,23,12,50,12.20
2015,10,23,12,51,12.20
2015,10,23,12,52,12.20
2015,10,23,12,53,12.20
2015,10,23,12,54,12.20
2015,10,23,12,55,12.20
2015,10,23,12,56,12.20
2015,10,23,12,57,12.20
2015,10,23,12,58,12.20
2015,10,23,12,59,12.20
2015,10,23,13,00,12.20
2015,10,23,13,01,12.20
2015,10,23,13,02,12.30
2015,10,23,13,03,12.30
2015,10,23,13,04,12.30
2015,10,23,13,05,12.40
2015,10,23,13,06,12.40
2015,10,23,13,07,12.40
2015,10,23,13,08,12.40
2015,10,23,13,09,12.40
2015,10,23,13,10,12.50
2015,10,23,13,11,12.50
2015,10,23,13,12,12.50
2015,10,23,13,13,12.50
2015,10,23,13,14,12.60
2015,10,23,13,15,12.60
2015,10,23,13,16,12.60
2015,10,23,13,17,12.60
2015,10,23,13,18,12.70
2015,10,23,13,19,12.70
2015,10,23,13,20,12.70
2015,10,23,13,21,12.80
2015,10,23,13,22,12.80
2015,10,23,13,23,12.80
2015,10,23,13,24,12.80
2015,10,23,13,25,12.90
2015,10,23,13,26,12.90
2015,10,23,13,27,13.00
2015,10,23,13,28,13.00
2015,10,23,13,29,13.10
2015,10,23,13,30,13.10
2015,10,23,13,31,13.10
2015,10,23,13,32,13.10
2015,10,23,13,33,13.10
2015,10,23,13,34,13.20
2015,10,23,13,35,13.20
2015,10,23,13,36,13.30
2015,10,23,13,37,13.30
2015,10,23,13,38,13.30
2015,10,23,13,39,13.30
2015,10,23,13,40,13.20
2015,10,23,13,41,13.20
2015,10,23,13,42,13.20
2015,10,23,13,43,13.20
2015,10,23,13,44,13.20
2015,10,23,13,45,13.20
2015,10,23,13,46,13.20
2015,10,23,13,47,13.20
2015,10,23,13,48,13.20
2015,10,23,13,49,13.10
2015,10,23,13,50,13.10
2015,10,23,13,51,13.00
2015,10,23,13,52,12.90
2015,10,23,13,53,12.90
2015,10,23,13,54,12.90
2015,10,23,13,55,12.90
2015,10,23,13,56,12.90
2015,10,23,13,57,13.00
2015,10,23,13,58,13.00
2015,10,23,13,59,13.00
2015,10,23,14,00,13.00
2015,10,23,14,01,12.90
2015,10,23,14,02,12.90
2015,10,23,14,03,12.90
2015,10,23,14,04,12.80
2015,10,23,14,05,12.80
2015,10,23,14,06,12.80
2015,10,23,14,07,12.70
2015,10,23,14,08,12.60
2015,10,23,14,09,12.60
2015,10,23,14,10,12.60
2015,10,23,14,11,12.60
2015,10,23,14,12,12.60
2015,10,23,14,13,12.60
2015,10,23,14,14,12.60
2015,10,23,14,15,12.60
2015,10,23,14,16,12.60
2015,10,23,14,17,12.60
2015,10,23,14,18,12.60
2015,10,23,14,19,12.60
2015,10,23,14,20,12.60
2015,10,23,14,21,12.60
2015,10,23,14,22,12.70
2015,10,23,14,23,12.70
2015,10,23,14,24,12.70
2015,10,23,14,25,12.70
2015,10,23,14,26,12.70
2015,10,23,14,27,12.80
2015,10,23,14,28,12.80
2015,10,23,14,29,12.80
2015,10,23,14,30,12.80
2015,10,23,14,31,12.90
2015,10,23,14,32,12.90
2015,10,23,14,33,13.00
2015,10,23,14,34,13.00
2015,10,23,14,35,13.10
2015,10,23,14,36,13.10
2015,10,23,14,37,13.20
2015,10,23,14,38,13.30
2015,10,23,14,39,13.30
2015,10,23,14,40,13.30
2015,10,23,14,41,13.40
2015,10,23,14,42,13.40
2015,10,23,14,43,13.50
2015,10,23,14,44,13.60
2015,10,23,14,45,13.60
2015,10,23,14,46,13.70
2015,10,23,14,47,13.80
2015,10,23,14,48,13.80
2015,10,23,14,49,13.80
2015,10,23,14,50,13.90
2015,10,23,14,51,13.90
2015,10,23,14,52,13.90
2015,10,23,14,53,13.90
2015,10,23,14,54,14.00
2015,10,23,14,55,14.00
2015,10,23,14,56,14.00
2015,10,23,14,57,14.00
2015,10,23,14,58,14.00
2015,10,23,14,59,14.10
2015,10,23,15,00,14.10
2015,10,23,15,01,14.00
2015,10,23,15,02,14.00
2015,10,23,15,03,13.90
2015,10,23,15,04,13.90
2015,10,23,15,05,13.80
2015,10,23,15,06,13.80
2015,10,23,15,07,13.80
2015,10,23,15,08,13.80
2015,10,23,15,09,13.70
2015,10,23,15,10,13.70
2015,10,23,15,11,13.60
2015,10,23,15,12,13.60
2015,10,23,15,13,13.60
2015,10,23,15,14,13.50
2015,10,23,15,15,13.50
2015,10,23,15,16,13.40
2015,10,23,15,17,13.40
2015,10,23,15,18,13.40
2015,10,23,15,19,13.30
2015,10,23,15,20,13.30
2015,10,23,15,21,13.30
2015,10,23,15,22,13.30
2015,10,23,15,23,13.30
2015,10,23,15,24,13.30
2015,10,23,15,25,13.20
2015,10,23,15,26,13.20
2015,10,23,15,27,13.20
2015,10,23,15,28,13.20
2015,10,23,15,29,13.20
2015,10,23,15,30,13.10
2015,10,23,15,31,13.10
2015,10,23,15,32,13.10
2015,10,23,15,33,13.10
2015,10,23,15,34,13.10
2015,10,23,15,35,13.00
2015,10,23,15,36,13.00
2015,10,23,15,37,13.00
2015,10,23,15,38,13.00
2015,10,23,15,39,13.00
2015,10,23,15,40,13.00
2015,10,23,15,41,13.10
2015,10,23,15,42,13.10
2015,10,23,15,43,13.10
2015,10,23,15,44,13.10
2015,10,23,15,45,13.10
2015,10,23,15,46,13.10
2015,10,23,15,47,13.10
2015,10,23,15,48,13.10
2015,10,23,15,49,13.10
2015,10,23,15,50,13.10
2015,10,23,15,51,13.20
2015,10,23,15,52,13.20
2015,10,23,15,53,13.20
2015,10,23,15,54,13.20
2015,10,23,15,55,13.20
2015,10,23,15,56,13.30
2015,10,23,15,57,13.30
2015,10,23,15,58,13.30
2015,10,23,15,59,13.30
2015,10,23,16,00,13.30
2015,10,23,16,01,13.30
2015,10,23,16,02,13.30
2015,10,23,16,03,13.30
2015,10,23,16,04,13.30
2015,10,23,16,05,13.40
2015,10,23,16,06,13.40
2015,10,23,16,07,13.40
2015,10,23,16,08,13.40
2015,10,23,16,09,13.40
2015,10,23,16,10,13.50
2015,10,23,16,11,13.50
2015,10,23,16,12,13.60
2015,10,23,16,13,13.60
2015,10,23,16,14,13.70
2015,10,23,16,15,13.70
2015,10,23,16,16,13.70
2015,10,23,16,17,13.80
2015,10,23,16,18,13.80
2015,10,23,16,19,13.90
2015,10,23,16,20,13.90
2015,10,23,16,21,13.90
2015,10,23,16,22,14.00
2015,10,23,16,23,14.00
2015,10,23,16,24,14.10
2015,10,23,16,25,14.10
2015,10,23,16,26,14.10
2015,10,23,16,27,14.10
2015,10,23,16,28,14.20
2015,10,23,16,29,14.20
2015,10,23,16,30,14.20
2015,10,23,16,31,14.20
2015,10,23,16,32,14.20
2015,10,23,16,33,14.20
2015,10,23,16,34,14.20
2015,10,23,16,35,14.20
2015,10,23,16,36,14.20
2015,10,23,16,37,14.20
2015,10,23,16,38,14.20
2015,10,23,16,39,14.20
2015,10,23,16,40,14.20
2015,10,23,16,41,14.20
2015,10,23,16,42,14.20
2015,10,23,16,43,14.20
2015,10,23,16,44,14.10
2015,10,23,16,45,14.10
2015,10,23,16,46,14.10
2015,10,23,16,47,14.10
2015,10,23,16,48,14.10
2015,10,23,16,49,14.10
2015,10,23,16,50,14.10
2015,10,23,16,51,14.10
2015,10,23,16,52,14.00
2015,10,23,16,53,13.90
2015,10,23,16,54,13.90
2015,10,23,16,55,13.90
2015,10,23,16,56,13.80
2015,10,23,16,57,13.80
2015,10,23,16,58,13.80
2015,10,23,16,59,13.70
2015,10,23,17,00,13.70
2015,10,23,17,01,13.70
2015,10,23,17,02,13.70
2015,10,23,17,03,13.70
2015,10,23,17,04,13.70
2015,10,23,17,05,13.60
2015,10,23,17,06,13.60
2015,10,23,17,07,13.60
2015,10,23,17,08,13.60
2015,10,23,17,09,13.60
2015,10,23,17,10,13.60
2015,10,23,17,11,13.60
2015,10,23,17,12,13.60
2015,10,23,17,13,13.60
2015,10,23,17,14,13.60
2015,10,23,17,15,13.50
2015,10,23,17,16,13.50
2015,10,23,17,17,13.50
2015,10,23,17,18,13.40
2015,10,23,17,19,13.40
2015,10,23,17,20,13.40
2015,10,23,17,21,13.40
2015,10,23,17,22,13.30
2015,10,23,17,23,13.30
2015,10,23,17,24,13.30
2015,10,23,17,25,13.20
2015,10,23,17,26,13.20
2015,10,23,17,27,13.20
2015,10,23,17,28,13.10
2015,10,23,17,29,13.10
2015,10,23,17,30,13.10
2015,10,23,17,31,13.00
2015,10,23,17,32,13.00
2015,10,23,17,33,13.00
2015,10,23,17,34,12.90
2015,10,23,17,35,12.90
2015,10,23,17,36,12.80
2015,10,23,17,37,12.80
2015,10,23,17,38,12.80
2015,10,23,17,39,12.70
2015,10,23,17,40,12.70
2015,10,23,17,41,12.60
2015,10,23,17,42,12.50
2015,10,23,17,43,12.50
2015,10,23,17,44,12.40
2015,10,23,17,45,12.40
2015,10,23,17,46,12.30